Theta_e
339 345 353 352 351 351 350 351 350 351 351 352 352 352 351 350 350 348 349 349 349 349 350 350 350 350 349 348 348 349 349 349 349 347 345 347 347 350 351 353 353 352 357
340 346 353 353 352 351 350 350 351 351 351 351 352 351 350 349 349 349 349 349 347 347 347 347 348 349 350 351 350 349 349 349 349 349 348 348 346 347 351 352 352 351 355
343 345 350 353 352 351 350 350 351 351 351 351 351 350 350 349 348 348 344 344 343 343 343 342 345 348 348 349 349 350 350 349 350 349 349 341 338 344 346 351 352 353 353
343 344 347 354 352 351 350 351 351 351 350 349 349 349 348 348 345 341 337 335 334 335 339 341 343 345 345 345 346 347 348 348 348 348 340 340 338 342 346 353 355 353 352
337 339 346 354 353 352 351 352 351 351 350 349 348 348 346 344 340 337 334 333 333 332 334 334 336 338 340 341 342 345 346 347 348 346 337 335 333 340 345 351 354 354 353
332 339 353 354 353 353 351 351 351 350 348 347 345 344 342 340 338 334 333 333 333 333 333 333 333 334 335 337 338 339 340 343 345 338 336 336 337 340 346 352 355 354 352
338 342 349 355 353 352 352 351 349 345 343 341 339 339 339 338 335 334 332 332 332 333 334 334 335 335 335 337 338 339 340 340 334 335 335 334 333 342 347 356 356 353 351
342 344 347 354 353 352 352 346 342 341 340 338 337 338 337 337 337 336 334 333 333 334 334 335 337 337 337 338 337 343 342 340 334 335 335 334 339 346 349 353 350 349 347
340 344 343 345 347 351 346 343 341 338 336 336 336 337 337 337 337 336 334 333 335 334 333 334 336 335 338 334 336 338 341 339 328 331 334 335 342 348 345 345 343 344 346
324 325 325 335 339 338 336 342 340 334 334 334 336 333 332 332 334 336 336 335 333 334 334 334 334 334 334 333 334 335 334 331 326 331 334 336 342 343 343 344 344 345 345
323 321 323 323 334 336 335 337 336 334 332 332 330 331 322 317 321 324 332 332 333 333 333 333 332 331 330 328 331 332 328 317 316 326 332 339 340 340 341 341 341 342 343
318 320 320 321 323 330 340 330 321 323 319 319 319 319 317 315 321 324 327 329 330 329 328 327 328 327 324 317 317 322 314 314 315 316 323 338 336 335 336 338 339 340 341
317 320 320 320 320 322 321 319 320 319 317 319 318 317 316 316 315 317 316 315 315 322 315 316 316 316 314 315 316 315 315 314 313 313 320 337 336 335 335 337 337 338 339
315 316 317 320 318 318 319 317 318 317 317 317 319 316 314 313 314 315 315 314 314 313 311 312 312 313 314 315 315 313 313 313 314 313 316 332 336 334 334 335 335 334 336
313 315 316 318 318 316 317 315 316 317 316 316 316 317 315 313 313 314 313 313 313 311 310 310 310 311 312 313 314 312 312 313 314 314 315 334 336 334 333 333 334 334 335
313 315 316 316 317 316 316 313 315 317 316 315 314 317 316 313 313 312 312 312 312 311 310 309 309 309 310 311 312 311 312 313 315 318 320 324 334 332 332 331 331 331 332
312 314 316 315 316 316 316 314 313 316 316 313 314 316 315 314 313 312 310 312 311 311 309 309 309 308 308 310 309 310 311 315 317 319 321 321 323 331 331 331 330 330 330
313 313 316 321 316 315 314 315 313 315 315 314 313 315 316 315 314 312 310 310 311 309 308 307 307 306 306 306 306 308 309 314 315 317 318 319 321 321 324 330 329 329 329
315 313 314 316 316 316 316 316 314 315 316 314 313 314 315 315 315 311 310 311 309 308 306 306 306 304 303 304 307 308 308 310 312 316 315 316 316 317 318 325 328 328 328
315 315 313 313 314 315 315 315 314 313 314 313 313 314 314 315 315 311 310 310 308 306 306 305 304 305 304 303 308 308 307 308 309 310 311 314 314 315 316 317 316 318 327
316 315 314 313 314 314 312 311 311 311 313 313 313 315 314 315 314 312 310 310 308 306 304 305 304 303 303 304 303 304 304 306 306 308 308 309 309 312 314 315 316 315 316
317 316 314 313 313 313 314 312 312 312 313 313 314 314 314 314 314 313 310 309 307 305 305 305 303 302 302 303 300 298 298 302 304 308 307 308 308 309 312 314 315 315 314
317 316 316 314 313 313 315 315 315 314 313 312 313 312 314 315 315 312 311 309 307 305 305 304 304 303 301 302 303 301 296 295 301 305 306 306 306 307 308 311 314 315 314
320 320 319 316 313 313 315 313 312 310 310 310 310 311 313 314 314 313 312 310 308 306 305 305 308 303 301 301 302 305 304 304 298 297 302 304 306 307 307 307 310 312 314
323 321 318 316 314 314 314 314 312 310 310 311 311 311 310 311 313 314 312 310 308 307 307 306 306 303 302 301 301 301 300 300 302 299 296 301 303 306 306 307 308 309 311
324 322 318 315 315 314 313 314 312 311 310 308 309 309 310 310 310 312 313 310 309 308 308 308 307 305 304 303 302 302 301 299 299 298 296 297 298 302 305 307 308 309 309
Wind_Speed
4 5 9 7 7 6 6 8 8 7 7 8 8 9 9 9 10 9 9 9 8 9 10 11 11 12 10 9 10 9 9 8 8 7 7 7 6 7 5 6 6 5 7
5 6 9 7 6 6 6 7 7 7 7 7 8 8 8 8 9 9 10 11 11 11 11 11 12 12 12 13 10 9 9 10 8 7 7 6 7 8 9 9 8 6 9
5 5 5 6 5 6 5 6 7 6 6 7 8 8 9 10 9 11 12 11 11 10 10 10 12 12 11 11 12 12 10 9 10 11 9 3 5 9 10 13 12 9 7
3 3 4 7 5 5 5 5 6 6 6 6 7 7 9 10 10 10 10 11 11 9 9 11 12 13 12 11 11 12 12 11 10 10 3 4 6 10 10 13 14 11 9
1 4 5 7 6 5 4 5 6 8 8 8 8 9 9 9 8 9 10 12 13 11 10 9 9 10 11 13 13 12 12 13 12 8 3 6 5 9 14 13 15 13 12
3 2 6 7 6 4 3 8 9 10 10 11 11 9 8 7 6 6 8 9 11 12 12 10 10 10 10 11 13 13 13 12 12 5 3 5 7 13 16 16 13 11 9
4 3 4 6 5 4 7 10 10 11 12 12 10 8 4 3 3 4 5 7 9 10 11 12 11 10 10 11 10 11 12 12 6 4 4 4 5 12 16 8 10 9 8
5 5 6 5 4 7 11 11 10 11 9 10 10 11 2 0 3 8 8 8 9 11 11 12 12 9 9 12 13 15 4 7 6 5 5 5 9 13 5 4 5 5 7
6 6 5 5 4 11 12 11 10 10 10 11 11 14 14 13 12 10 6 8 8 11 11 12 11 12 13 14 14 14 10 10 5 3 5 4 9 7 4 2 2 4 5
8 6 6 4 4 5 5 10 10 9 10 10 12 15 13 13 14 15 13 11 11 13 13 13 13 14 15 15 15 10 9 9 6 5 2 2 7 9 9 8 7 6 8
5 5 6 5 3 4 5 5 7 9 8 11 11 12 10 5 6 8 11 15 13 13 13 14 13 14 14 14 15 13 8 3 3 2 2 4 6 7 8 9 9 8 9
3 4 5 5 3 3 3 4 5 4 2 4 5 6 5 6 5 6 10 14 13 14 14 15 15 14 12 4 5 10 3 5 3 3 1 0 2 5 7 7 9 12 11
2 2 4 4 4 5 4 3 2 2 1 4 6 5 5 4 4 4 4 4 4 10 5 7 7 4 6 5 4 4 5 4 3 3 4 1 2 5 6 7 8 9 11
3 1 2 3 4 4 3 2 3 2 2 3 2 4 4 3 4 4 3 4 4 4 5 5 4 5 6 5 6 6 6 5 3 1 3 5 4 3 5 6 8 10 10
5 4 2 0 2 1 3 3 3 3 3 2 2 3 4 4 4 3 4 3 3 4 4 5 4 4 5 6 5 5 6 6 5 2 2 6 6 3 2 5 8 9 10
5 5 3 3 2 2 3 3 3 3 3 2 2 2 4 3 3 4 4 3 4 4 4 4 4 4 4 4 5 6 6 5 5 5 4 4 5 4 4 5 6 9 10
5 5 6 5 3 2 2 3 2 4 3 2 2 1 3 3 3 4 3 3 3 4 5 5 5 4 4 4 4 5 5 5 5 5 4 4 4 7 5 6 7 8 9
6 6 6 5 4 3 1 1 2 3 3 2 2 1 3 3 4 4 3 3 4 4 4 4 4 4 4 4 4 4 4 5 5 5 4 4 3 3 5 7 8 8 8
7 7 5 5 4 3 3 3 3 4 3 2 1 1 2 3 4 4 3 2 4 4 4 3 3 3 4 5 4 3 3 4 5 5 6 5 5 4 3 6 9 10 8
7 7 5 4 4 3 1 2 1 2 2 2 3 3 2 1 2 3 2 2 3 3 4 4 3 3 2 4 3 3 2 3 3 4 4 4 5 5 5 5 4 4 8
6 6 7 5 5 1 0 1 1 1 2 2 3 3 2 1 1 2 1 1 2 3 3 4 3 4 4 6 3 4 3 3 5 3 3 4 5 5 5 4 3 2 3
9 7 6 7 5 3 2 2 1 2 2 2 1 2 2 2 2 2 1 1 1 2 4 4 4 4 2 4 2 1 4 5 4 3 4 5 6 4 5 5 5 4 2
9 8 7 7 7 5 4 1 1 2 2 1 1 2 3 4 3 3 3 2 1 1 2 2 3 4 3 3 5 3 3 2 4 3 4 4 6 5 5 5 5 4 3
10 8 8 7 8 6 4 2 2 3 3 2 1 3 4 4 5 4 3 3 2 1 3 2 1 1 1 3 2 2 1 2 1 5 4 5 6 6 6 4 4 4 4
9 10 9 7 7 7 6 4 4 3 2 1 1 3 2 3 4 4 4 4 4 2 3 4 2 2 1 1 1 1 1 1 2 3 4 6 4 4 4 4 4 4 4
10 10 7 8 8 7 7 7 6 6 4 1 1 0 2 2 3 5 5 4 5 4 4 4 3 4 4 3 2 2 2 2 3 2 3 4 4 6 5 4 4 4 3
Wind_Direction
218 193 195 179 154 127 105 98 84 73 68 64 58 54 50 46 47 38 32 28 18 5 356 351 340 334 333 332 332 340 342 345 348 351 350 337 303 295 279 270 258 241 226
138 194 194 183 154 123 107 101 94 79 66 60 55 54 58 58 53 45 35 22 7 3 0 351 345 348 341 330 326 326 326 326 327 329 326 330 317 292 263 261 256 221 209
153 192 188 175 146 119 108 86 76 68 60 51 46 43 55 56 48 42 33 26 13 3 352 347 348 352 344 340 337 330 324 319 318 317 313 325 299 288 259 246 235 232 222
170 203 185 173 146 126 106 90 79 67 56 56 53 58 61 64 58 51 40 19 4 360 359 351 354 352 346 340 331 325 319 314 308 304 331 309 299 299 293 261 235 222 207
151 213 189 152 140 123 107 96 69 60 52 47 52 57 65 69 59 49 34 22 18 13 1 352 346 340 337 330 326 323 321 317 311 309 312 303 293 296 304 299 228 214 202
145 137 148 131 120 98 63 66 64 60 52 55 55 55 60 66 54 40 26 26 27 31 33 23 9 357 347 332 320 315 312 316 323 322 288 281 298 302 308 307 204 201 206
82 65 106 111 98 69 93 89 81 78 69 53 40 28 30 49 15 359 353 2 17 14 8 5 2 352 350 350 332 315 305 309 319 332 306 284 277 292 301 274 183 190 201
82 55 47 88 103 103 92 91 96 85 67 52 38 19 27 230 352 321 316 332 3 6 360 7 10 16 4 2 359 350 298 319 325 322 317 306 307 310 291 141 155 192 231
50 53 35 24 88 111 107 107 90 70 61 54 41 50 55 43 27 8 335 325 15 16 12 14 16 13 3 4 0 5 33 31 25 334 324 324 321 4 25 63 173 214 223
44 45 37 33 81 101 114 115 96 76 64 63 60 50 45 36 29 29 29 33 16 17 7 13 12 7 5 0 359 4 38 35 37 43 47 14 10 1 346 327 300 274 262
59 36 34 33 134 127 115 121 99 80 67 63 57 50 38 20 15 18 34 22 20 20 26 23 18 17 16 8 3 2 0 359 21 31 17 26 31 24 11 343 335 309 286
41 32 34 35 71 150 116 90 95 79 53 67 60 50 39 26 9 44 32 28 22 30 23 16 10 9 8 348 350 3 355 337 358 352 320 45 55 28 29 10 335 310 303
109 65 32 46 54 86 97 108 100 63 343 57 45 44 32 24 5 26 22 8 2 24 15 6 360 357 346 347 350 353 352 350 328 304 318 275 342 32 27 16 353 329 303
151 79 8 66 58 55 86 120 157 140 65 61 42 54 46 25 20 28 20 8 6 4 8 3 349 336 342 346 346 347 345 336 331 282 305 313 146 82 47 12 341 326 311
159 167 184 91 90 95 112 137 148 144 97 106 74 66 54 41 35 28 18 25 11 354 8 354 345 344 342 344 343 346 341 333 324 341 9 320 132 103 40 359 350 348 343
177 193 190 206 167 130 135 115 123 141 149 124 80 96 66 66 66 51 35 33 11 4 348 345 337 340 337 338 345 345 343 341 19 61 27 9 76 48 24 9 356 347 341
192 204 201 201 200 138 135 111 162 170 149 148 115 120 88 74 76 60 46 28 355 345 350 356 344 341 353 346 350 354 351 2 25 62 37 26 22 15 7 350 351 345 338
168 201 216 229 180 170 246 231 150 206 154 164 148 172 95 92 83 61 63 20 346 0 2 357 339 337 344 358 346 358 359 12 23 46 42 35 14 6 348 331 336 330 327
184 186 217 227 209 242 285 261 151 198 194 192 162 204 117 91 87 79 52 6 357 9 7 345 323 340 335 346 345 5 13 28 26 25 29 20 358 357 340 326 333 333 319
191 190 214 225 221 253 323 331 129 156 175 203 222 219 160 148 94 82 49 40 6 14 1 354 344 329 311 330 350 10 350 23 46 27 20 3 343 346 332 316 314 323 326
191 193 204 200 224 183 210 137 122 196 188 241 230 233 197 208 100 92 42 21 22 35 342 351 336 349 327 344 17 346 329 322 10 0 4 0 358 335 326 311 295 311 320
190 198 206 219 209 213 198 221 158 163 210 205 223 255 228 216 203 159 162 249 345 20 10 6 20 335 335 3 60 50 0 331 323 0 344 352 338 320 328 321 302 302 313
190 183 204 218 216 218 210 140 99 71 37 46 319 287 254 222 204 170 194 224 223 32 355 338 360 19 346 327 22 109 15 313 329 326 330 331 329 324 319 320 306 294 294
194 178 199 202 209 211 199 172 167 166 171 236 184 265 263 216 218 195 196 233 212 240 299 300 347 349 34 344 325 3 284 222 289 325 325 313 320 312 316 312 300 292 293
169 192 193 193 208 196 180 173 160 181 187 167 210 286 208 205 229 227 208 222 231 222 264 270 283 268 252 265 245 315 331 312 238 235 293 316 314 308 293 306 300 290 294
177 184 185 188 209 199 176 183 182 189 199 209 220 279 231 251 261 256 247 244 253 228 243 250 253 232 233 245 261 237 199 209 262 248 260 285 274 300 306 305 300 297 292